Location: Milton Keynes
(52.0316°N, 0.7531°W)
Time: 09:56:12
(UTC+00:00)

ARIANE 6 FM1 Upper Stage - Visible Passes

Search period start: 09 November 2025 00:00
Search period end: 19 November 2025 00:00
Orbit: 523 x 612 km, 62.0° (Epoch: 08 November)

Date Brightness Start Highest point End Pass type
(mag) Time Alt. Az. Time Alt. Az. Time Alt. Az.
09 Nov 2.5 17:47:27 10° SW 17:51:28 89° SE 17:54:01 21° NE visible
09 Nov 4.6 19:27:32 10° W 19:30:04 24° NW 19:30:04 24° NW visible
10 Nov 2.7 17:48:13 10° WSW 17:52:12 69° NW 17:54:49 20° NE visible
10 Nov 4.8 19:28:35 10° WNW 19:30:52 22° NW 19:30:52 22° NW visible
11 Nov 3.1 17:49:02 10° WSW 17:52:57 52° NW 17:55:35 19° NE visible
11 Nov 4.9 19:29:38 10° WNW 19:31:37 19° NW 19:31:37 19° NW visible
12 Nov 3.5 17:49:56 10° WSW 17:53:44 41° NNW 17:56:18 18° NNE visible
12 Nov 5.0 19:30:38 10° WNW 19:32:20 17° NW 19:32:20 17° NW visible
13 Nov 3.8 17:50:52 10° W 17:54:32 34° NNW 17:56:58 18° NNE visible
13 Nov 5.1 19:31:37 10° NW 19:33:01 16° NNW 19:33:01 16° NNW visible
14 Nov 4.0 17:51:50 10° W 17:55:21 28° NNW 17:57:37 17° NNE visible
14 Nov 5.2 19:32:31 10° NW 19:33:40 15° NNW 19:33:40 15° NNW visible
15 Nov 4.2 17:52:50 10° WNW 17:56:11 25° NNW 17:58:14 17° NNE visible
15 Nov 5.3 19:33:22 10° NW 19:34:17 14° NNW 19:34:17 14° NNW visible
16 Nov 4.3 17:53:49 10° WNW 17:57:01 22° NNW 17:58:51 17° NNE visible
16 Nov 5.3 19:34:09 10° NW 19:34:53 13° NNW 19:34:53 13° NNW visible
17 Nov 4.4 17:54:48 10° WNW 17:57:52 21° N 17:59:26 17° NNE visible
17 Nov 5.4 19:34:52 10° NW 19:35:28 13° NNW 19:35:28 13° NNW visible
18 Nov 4.4 17:55:44 10° NW 17:58:42 20° N 18:00:01 17° NNE visible
18 Nov 5.4 19:35:32 10° NW 19:36:03 13° NW 19:36:03 13° NW visible
